Regional Weather Roundup
Issued by NWS

Home | Current Version | Previous Version | Text Only | Print | Product List | Glossary Off
Versions: 1 2 3 4 5 6 7 8 9 10 11 12 13 14 15 16 17 18 19 20 21 22 23 24 25 26 27 28 29 30 31 32 33 34 35 36 37 38 39 40 41 42 43 44 45 46 47 48 49 50

000
ASUS45 KABQ 211301
RWRNM
WEATHER ROUNDUP FOR NEW MEXICO
NATIONAL WEATHER SERVICE ALBUQUERQUE NM
700 AM MDT THU AUG 21 2014

NOTE: "FAIR" MEANS FEW OR NO CLOUDS BELOW 12,000 FEET AGL WITH NO
       SIGNIFICANT WEATHER OR OBSTRUCTIONS TO VISION.

      THIS PRODUCT IS RELEASED AS TWO VERSIONS.  ONE VERSION NEAR
      THE TOP OF THE HOUR CONTAINING PRELIMINARY DATA FROM ALBUQUERQUE
      AND OTHER STATIONS.  A FINAL VERSION WITH ADDITIONAL DATA IS
      ISSUED ABOUT 10 MINUTES AFTER THE HOUR.

NMZ501-503-504-510>518-211400-
NORTHWEST PLATEAU/NORTHCENTRAL MOUNTAINS

CITY           SKY/WX    TMP DP  RH WIND       PRES   REMARKS
FARMINGTON     CLEAR     53  39  59 CALM      30.16R
LOS ALAMOS     CLEAR     58  37  44 CALM      30.26R
SANTA FE       CLEAR     55  39  54 N5        30.19R
TAOS           CLEAR     45  36  70 NE6       30.27R
ANGEL FIRE     FAIR      35  32  88 CALM      30.34R

$$
NMZ402-403-502-505>509-211400-
WESTCENTRAL MOUNTAINS/SOUTHWEST MOUNTAINS

CITY           SKY/WX    TMP DP  RH WIND       PRES   REMARKS
GALLUP         CLOUDY    54  40  59 CALM      30.24R
SILVER CITY    CLEAR     61  50  67 N12       30.16R

$$
NMZ407-409-411-412-211400-
SOUTHERN DESERTS

CITY           SKY/WX    TMP DP  RH WIND       PRES   REMARKS
LORDSBURG      FAIR      61  54  77 CALM      30.10R
DEMING         CLEAR     61  52  72 SW6       30.09R
LAS CRUCES     CLEAR     64  51  61 W6        30.11R
HOLLOMAN AFB   PTCLDY    70  50  49 SE8       30.05R
ALAMOGORDO     PTCLDY    66  48  52 SE6       30.07R
T OR C         CLEAR     64  47  53 N6        30.10R

$$
NMZ519>523-211400-
CENTRAL VALLEYS/CENTRAL HIGHLANDS

CITY           SKY/WX    TMP DP  RH WIND       PRES   REMARKS
ALBUQUERQUE    PTCLDY    66  44  45 CALM      30.15R
DOUBLE EAGLE   PTCLDY    61  39  44 N3        30.18R
CLINES CORNERS CLEAR     55  41  59 NW12      30.22R
BELEN          FAIR      60  47  63 CALM      30.14S
SOCORRO        FAIR      64  46  50 CALM      30.12R

$$
NMZ524>526-539-540-211400-
SOUTHCENTRAL MOUNTAINS

CITY           SKY/WX    TMP DP  RH WIND       PRES   REMARKS
RUIDOSO        NOT AVBL

$$
NMZ527>531-211400-
NORTHEAST HIGHLANDS/NORTHEAST PLAINS

CITY           SKY/WX    TMP DP  RH WIND       PRES   REMARKS
LAS VEGAS      CLEAR     57  39  51 N3        30.20R
RATON          CLEAR     52  46  80 NE7       30.15R
CLAYTON        CLEAR     66  49  54 SW5       30.06R

$$
NMZ532>537-211400-
EASTCENTRAL PLAINS

CITY           SKY/WX    TMP DP  RH WIND       PRES   REMARKS
TUCUMCARI      PTCLDY    73  59  61 SW10      29.99R
CANNON AFB     NOT AVBL
CLOVIS AIRPORT   N/A     64  61  88 SW6       30.07S

$$
NMZ028-029-538-211400-
SOUTHEAST PLAINS

CITY           SKY/WX    TMP DP  RH WIND       PRES   REMARKS
ROSWELL        CLEAR     69  61  75 CALM      30.00R
ARTESIA        CLEAR     70  55  60 SE6       30.01R
CARLSBAD       PTCLDY    71  58  63 CALM      29.98R
HOBBS          CLEAR     70  63  78 SE8       30.04R


$$



USA.gov is the U.S. government's official web portal to all federal, state and local government web resources and services.